Time,TemperatureF,DewpointF,PressureIn,WindDirection,WindDirectionDegrees,WindSpeedMPH,WindSpeedGustMPH,Humidity,HourlyPrecipIn,Conditions,Clouds,dailyrainin,SolarRadiationWatts/m^2,SoftwareType,DateUTC
2016-07-25 00:02:00,72.3,67.8,29.96,SW,214,0.0,-999.0,86,-99.99,,,0.00,0.0,meteohub,2016-07-25 04:02:00,
2016-07-25 00:07:00,72.3,67.8,29.96,SW,214,0.0,-999.0,86,-99.99,,,0.00,0.0,meteohub,2016-07-25 04:07:00,
2016-07-25 00:12:00,72.1,68.0,29.96,SW,214,0.0,-999.0,87,-99.99,,,0.00,0.0,meteohub,2016-07-25 04:12:00,
2016-07-25 00:17:00,72.1,68.0,29.96,SW,214,0.0,-999.0,87,-99.99,,,0.00,0.0,meteohub,2016-07-25 04:17:00,
2016-07-25 00:22:00,72.1,68.0,29.96,SW,214,0.0,-999.0,87,-99.99,,,0.00,0.0,meteohub,2016-07-25 04:22:00,
2016-07-25 00:27:00,72.1,68.0,29.95,SW,214,0.0,-999.0,87,-99.99,,,0.00,0.0,meteohub,2016-07-25 04:27:00,
2016-07-25 00:32:00,72.0,67.8,29.95,SW,214,0.0,-999.0,87,-99.99,,,0.00,0.0,meteohub,2016-07-25 04:32:00,
2016-07-25 00:37:00,72.0,67.8,29.95,SW,214,0.0,-999.0,87,-99.99,,,0.00,0.0,meteohub,2016-07-25 04:37:00,
2016-07-25 00:42:00,71.8,67.6,29.95,SW,214,0.0,-999.0,87,-99.99,,,0.00,0.0,meteohub,2016-07-25 04:42:00,
2016-07-25 00:47:00,71.6,67.5,29.95,SW,214,0.0,-999.0,87,-99.99,,,0.00,0.0,meteohub,2016-07-25 04:47:00,
2016-07-25 00:52:00,71.4,67.3,29.95,SW,214,0.0,-999.0,87,-99.99,,,0.00,0.0,meteohub,2016-07-25 04:52:00,
2016-07-25 00:57:00,71.2,67.5,29.94,SW,214,0.0,-999.0,88,-99.99,,,0.00,0.0,meteohub,2016-07-25 04:57:00,
2016-07-25 01:02:00,71.2,67.5,29.95,SW,214,0.0,-999.0,88,-99.99,,,0.00,0.0,meteohub,2016-07-25 05:02:00,
2016-07-25 01:07:00,71.1,67.3,29.95,SW,214,0.0,-999.0,88,-99.99,,,0.00,0.0,meteohub,2016-07-25 05:07:00,
2016-07-25 01:12:00,70.9,67.1,29.95,SW,214,0.0,-999.0,88,-99.99,,,0.00,0.0,meteohub,2016-07-25 05:12:00,
2016-07-25 01:17:00,70.7,66.9,29.95,SW,214,0.0,-999.0,88,-99.99,,,0.00,0.0,meteohub,2016-07-25 05:17:00,
2016-07-25 01:22:00,70.5,67.1,29.94,SW,214,0.0,-999.0,89,-99.99,,,0.00,0.0,meteohub,2016-07-25 05:22:00,
2016-07-25 01:27:00,70.3,66.9,29.94,SW,214,0.0,-999.0,89,-99.99,,,0.00,0.0,meteohub,2016-07-25 05:27:00,
2016-07-25 01:32:00,70.2,66.7,29.94,SW,214,0.0,-999.0,89,-99.99,,,0.00,0.0,meteohub,2016-07-25 05:32:00,
2016-07-25 01:37:00,70.2,66.7,29.94,SW,214,0.0,-999.0,89,-99.99,,,0.00,0.0,meteohub,2016-07-25 05:37:00,
2016-07-25 01:42:00,70.2,67.1,29.94,SW,214,0.0,-999.0,90,-99.99,,,0.00,0.0,meteohub,2016-07-25 05:42:00,
2016-07-25 01:47:00,70.0,66.9,29.94,SW,214,0.0,-999.0,90,-99.99,,,0.00,0.0,meteohub,2016-07-25 05:47:00,
2016-07-25 01:52:00,70.0,66.9,29.94,SW,214,0.0,-999.0,90,-99.99,,,0.00,0.0,meteohub,2016-07-25 05:52:00,
2016-07-25 01:57:00,70.0,66.9,29.94,SW,214,0.0,-999.0,90,-99.99,,,0.00,0.0,meteohub,2016-07-25 05:57:00,
2016-07-25 02:02:00,69.6,66.6,29.93,SW,214,0.0,-999.0,90,-99.99,,,0.00,0.0,meteohub,2016-07-25 06:02:00,
2016-07-25 02:07:00,69.6,66.6,29.93,SW,214,0.0,-999.0,90,-99.99,,,0.00,0.0,meteohub,2016-07-25 06:07:00,
2016-07-25 02:12:00,69.6,66.6,29.93,SW,214,0.0,-999.0,90,-99.99,,,0.00,0.0,meteohub,2016-07-25 06:12:00,
2016-07-25 02:17:00,69.4,66.4,29.93,SW,214,0.0,-999.0,90,-99.99,,,0.00,0.0,meteohub,2016-07-25 06:17:00,
2016-07-25 02:22:00,69.4,66.4,29.93,SW,214,0.0,-999.0,90,-99.99,,,0.00,0.0,meteohub,2016-07-25 06:22:00,
2016-07-25 02:27:00,69.3,66.2,29.93,SW,214,0.0,-999.0,90,-99.99,,,0.00,0.0,meteohub,2016-07-25 06:27:00,
2016-07-25 02:32:00,69.3,66.6,29.93,SW,214,0.0,-999.0,91,-99.99,,,0.00,0.0,meteohub,2016-07-25 06:32:00,
2016-07-25 02:37:00,69.3,66.6,29.93,SW,214,0.0,-999.0,91,-99.99,,,0.00,0.0,meteohub,2016-07-25 06:37:00,
2016-07-25 02:42:00,69.3,66.6,29.93,SW,214,0.0,-999.0,91,-99.99,,,0.00,0.0,meteohub,2016-07-25 06:42:00,
2016-07-25 02:47:00,69.1,66.4,29.93,SW,214,0.0,-999.0,91,-99.99,,,0.00,0.0,meteohub,2016-07-25 06:47:00,
2016-07-25 02:52:00,68.9,66.2,29.94,SW,214,0.0,-999.0,91,-99.99,,,0.00,0.0,meteohub,2016-07-25 06:52:00,
2016-07-25 02:57:00,68.9,66.2,29.93,SW,214,0.0,-999.0,91,-99.99,,,0.00,0.0,meteohub,2016-07-25 06:57:00,
2016-07-25 03:02:00,68.7,66.0,29.93,SW,214,0.0,-999.0,91,-99.99,,,0.00,0.0,meteohub,2016-07-25 07:02:00,
2016-07-25 03:07:00,68.7,66.0,29.93,SW,214,0.0,-999.0,91,-99.99,,,0.00,0.0,meteohub,2016-07-25 07:07:00,
2016-07-25 03:12:00,68.5,65.8,29.93,SW,214,0.0,-999.0,91,-99.99,,,0.00,0.0,meteohub,2016-07-25 07:12:00,
2016-07-25 03:17:00,68.5,65.8,29.93,SW,214,0.0,-999.0,91,-99.99,,,0.00,0.0,meteohub,2016-07-25 07:17:00,
2016-07-25 03:22:00,68.5,65.8,29.93,SW,214,0.0,-999.0,91,-99.99,,,0.00,0.0,meteohub,2016-07-25 07:22:00,
2016-07-25 03:27:00,68.5,66.2,29.93,SW,214,0.0,-999.0,92,-99.99,,,0.00,0.0,meteohub,2016-07-25 07:27:00,
2016-07-25 03:32:00,68.5,66.2,29.92,SW,214,0.0,-999.0,92,-99.99,,,0.00,0.0,meteohub,2016-07-25 07:32:00,
2016-07-25 03:37:00,68.4,65.7,29.92,SW,214,0.0,-999.0,91,-99.99,,,0.00,0.0,meteohub,2016-07-25 07:37:00,
2016-07-25 03:42:00,68.4,66.0,29.92,SW,214,0.0,-999.0,92,-99.99,,,0.00,0.0,meteohub,2016-07-25 07:42:00,
2016-07-25 03:47:00,68.2,65.5,29.92,SW,214,0.0,-999.0,91,-99.99,,,0.00,0.0,meteohub,2016-07-25 07:47:00,
2016-07-25 03:52:00,68.2,65.8,29.92,SW,214,0.0,-999.0,92,-99.99,,,0.00,0.0,meteohub,2016-07-25 07:52:00,
2016-07-25 03:57:00,68.2,65.8,29.92,SW,214,0.0,-999.0,92,-99.99,,,0.00,0.0,meteohub,2016-07-25 07:57:00,
2016-07-25 04:02:00,68.2,65.8,29.92,SSW,207,0.0,-999.0,92,-99.99,,,0.00,0.0,meteohub,2016-07-25 08:02:00,
2016-07-25 04:07:00,68.2,65.8,29.92,SSW,207,0.0,-999.0,92,-99.99,,,0.00,0.0,meteohub,2016-07-25 08:07:00,
2016-07-25 04:12:00,68.2,65.8,29.92,SSW,207,0.0,-999.0,92,-99.99,,,0.00,0.0,meteohub,2016-07-25 08:12:00,
2016-07-25 04:17:00,68.2,65.8,29.92,SSW,207,1.0,-999.0,92,-99.99,,,0.00,0.0,meteohub,2016-07-25 08:17:00,
2016-07-25 04:22:00,67.8,65.5,29.92,SSW,207,0.0,-999.0,92,-99.99,,,0.00,0.0,meteohub,2016-07-25 08:22:00,
2016-07-25 04:27:00,67.8,65.5,29.92,SSW,207,0.0,-999.0,92,-99.99,,,0.00,0.0,meteohub,2016-07-25 08:27:00,
2016-07-25 04:32:00,67.8,65.7,29.93,SSW,207,0.0,-999.0,93,-99.99,,,0.00,0.0,meteohub,2016-07-25 08:32:00,
2016-07-25 04:37:00,67.8,65.7,29.93,SSW,207,0.0,-999.0,93,-99.99,,,0.00,0.0,meteohub,2016-07-25 08:37:00,
2016-07-25 04:42:00,67.8,65.5,29.93,SSW,194,0.0,-999.0,92,-99.99,,,0.00,0.0,meteohub,2016-07-25 08:42:00,
2016-07-25 04:47:00,67.8,65.5,29.93,SSW,194,0.0,-999.0,92,-99.99,,,0.00,0.0,meteohub,2016-07-25 08:47:00,
2016-07-25 04:52:00,67.8,65.7,29.93,SSW,194,0.0,-999.0,93,-99.99,,,0.00,0.0,meteohub,2016-07-25 08:52:00,
2016-07-25 04:57:00,68.0,65.8,29.93,SSW,194,0.0,-999.0,93,-99.99,,,0.00,0.0,meteohub,2016-07-25 08:57:00,
2016-07-25 05:02:00,68.0,65.8,29.93,SSW,194,0.0,-999.0,93,-99.99,,,0.00,0.0,meteohub,2016-07-25 09:02:00,
2016-07-25 05:07:00,68.0,65.8,29.93,SSW,194,0.0,-999.0,93,-99.99,,,0.00,0.0,meteohub,2016-07-25 09:07:00,
2016-07-25 05:12:00,68.0,65.8,29.93,SSW,194,0.0,-999.0,93,-99.99,,,0.00,0.0,meteohub,2016-07-25 09:12:00,
2016-07-25 05:17:00,68.0,65.8,29.93,SSW,194,0.0,-999.0,93,-99.99,,,0.00,0.0,meteohub,2016-07-25 09:17:00,
2016-07-25 05:22:00,68.0,65.8,29.93,SSW,194,0.0,-999.0,93,-99.99,,,0.00,0.0,meteohub,2016-07-25 09:22:00,
2016-07-25 05:27:00,68.2,66.0,29.93,SSW,194,0.0,-999.0,93,-99.99,,,0.00,0.0,meteohub,2016-07-25 09:27:00,
2016-07-25 05:32:00,68.2,66.0,29.93,SSW,194,0.0,-999.0,93,-99.99,,,0.00,0.0,meteohub,2016-07-25 09:32:00,
2016-07-25 05:37:00,68.2,66.0,29.93,SSW,194,0.0,-999.0,93,-99.99,,,0.00,0.0,meteohub,2016-07-25 09:37:00,
2016-07-25 05:42:00,68.2,66.0,29.93,SSW,194,0.0,-999.0,93,-99.99,,,0.00,5.0,meteohub,2016-07-25 09:42:00,
2016-07-25 05:47:00,68.4,66.2,29.93,SSW,194,0.0,-999.0,93,-99.99,,,0.00,7.0,meteohub,2016-07-25 09:47:00,
2016-07-25 05:52:00,68.4,66.2,29.93,SSW,194,0.0,-999.0,93,-99.99,,,0.00,12.0,meteohub,2016-07-25 09:52:00,
2016-07-25 05:57:00,68.5,66.4,29.93,SSW,194,0.0,-999.0,93,-99.99,,,0.00,19.0,meteohub,2016-07-25 09:57:00,
2016-07-25 06:02:00,68.5,66.7,29.93,SSW,194,0.0,-999.0,94,-99.99,,,0.00,30.0,meteohub,2016-07-25 10:02:00,
2016-07-25 06:07:00,68.7,66.9,29.93,SSW,194,0.0,-999.0,94,-99.99,,,0.00,37.0,meteohub,2016-07-25 10:07:00,
2016-07-25 06:12:00,68.9,67.1,29.92,SSW,194,0.0,0.0,94,0.00,,,0.00,39.0,meteohub,2016-07-25 10:12:00,
2016-07-25 06:17:00,69.3,67.5,29.92,SSW,194,0.0,0.0,94,0.00,,,0.00,44.0,meteohub,2016-07-25 10:17:00,
2016-07-25 06:23:00,69.6,67.8,29.93,SSW,194,0.0,0.0,94,0.00,,,0.00,53.0,meteohub,2016-07-25 10:23:00,
2016-07-25 06:28:00,70.0,68.2,29.93,SSW,194,0.0,0.0,94,0.00,,,0.00,39.0,meteohub,2016-07-25 10:28:00,
2016-07-25 06:33:00,70.2,68.4,29.93,SSW,194,0.0,0.0,94,0.00,,,0.00,42.0,meteohub,2016-07-25 10:33:00,
2016-07-25 06:38:00,70.3,68.5,29.93,SSW,194,0.0,0.0,94,0.00,,,0.00,44.0,meteohub,2016-07-25 10:38:00,
2016-07-25 06:44:00,70.5,68.7,29.93,SSW,194,0.0,0.0,94,0.00,,,0.00,47.0,meteohub,2016-07-25 10:44:00,
2016-07-25 06:49:00,70.9,69.1,29.93,SSW,194,0.0,0.0,94,0.00,,,0.00,54.0,meteohub,2016-07-25 10:49:00,
2016-07-25 06:54:00,71.1,69.3,29.93,SSW,194,0.0,0.0,94,0.00,,,0.00,62.0,meteohub,2016-07-25 10:54:00,
2016-07-25 06:59:00,71.2,69.4,29.93,SSW,194,0.0,0.0,94,0.00,,,0.00,63.0,meteohub,2016-07-25 10:59:00,
2016-07-25 07:04:00,71.4,69.6,29.93,SSW,194,0.0,0.0,94,0.00,,,0.00,70.0,meteohub,2016-07-25 11:04:00,
2016-07-25 07:09:00,71.8,70.0,29.93,SSW,194,0.0,0.0,94,0.00,,,0.00,69.0,meteohub,2016-07-25 11:09:00,
2016-07-25 07:14:00,72.0,70.2,29.93,SSW,194,0.0,0.0,94,0.00,,,0.00,67.0,meteohub,2016-07-25 11:14:00,
2016-07-25 07:20:00,72.3,70.2,29.93,SSW,194,0.0,2.0,93,0.00,,,0.00,76.0,meteohub,2016-07-25 11:20:00,
2016-07-25 07:25:00,72.5,70.3,29.93,SSW,194,0.0,2.0,93,0.00,,,0.00,93.0,meteohub,2016-07-25 11:25:00,
2016-07-25 07:30:00,72.9,70.7,29.92,SSW,194,0.0,2.0,93,0.00,,,0.00,98.0,meteohub,2016-07-25 11:30:00,
2016-07-25 07:35:00,73.0,70.9,29.92,SSW,194,0.0,1.0,93,0.00,,,0.00,100.0,meteohub,2016-07-25 11:35:00,
2016-07-25 07:40:00,73.2,71.1,29.93,SSW,194,2.0,0.0,93,0.00,,,0.00,111.0,meteohub,2016-07-25 11:40:00,
2016-07-25 07:45:00,73.6,71.4,29.93,SSW,195,0.0,2.0,93,0.00,,,0.00,120.0,meteohub,2016-07-25 11:45:00,
2016-07-25 07:50:00,73.9,71.8,29.93,SSW,194,0.0,2.0,93,0.00,,,0.00,125.0,meteohub,2016-07-25 11:50:00,
2016-07-25 07:55:00,74.1,72.0,29.93,SSW,194,0.0,2.0,93,0.00,,,0.00,135.0,meteohub,2016-07-25 11:55:00,
2016-07-25 08:00:00,74.7,72.1,29.93,SSW,194,0.0,0.0,92,0.00,,,0.00,120.0,meteohub,2016-07-25 12:00:00,
2016-07-25 08:06:00,74.8,72.3,29.93,SSW,194,0.0,0.0,92,0.00,,,0.00,107.0,meteohub,2016-07-25 12:06:00,
2016-07-25 08:11:00,75.0,72.1,29.92,SSW,194,0.0,1.0,91,0.00,,,0.00,109.0,meteohub,2016-07-25 12:11:00,
2016-07-25 08:16:00,75.4,72.5,29.92,SSW,194,0.0,1.0,91,0.00,,,0.00,114.0,meteohub,2016-07-25 12:16:00,
2016-07-25 08:21:00,75.7,72.7,29.92,SSW,194,0.0,1.0,90,0.00,,,0.00,134.0,meteohub,2016-07-25 12:21:00,
2016-07-25 08:26:00,75.9,72.9,29.92,SSW,194,0.0,0.0,90,0.00,,,0.00,160.0,meteohub,2016-07-25 12:26:00,
2016-07-25 08:31:00,76.3,72.9,29.92,SSW,194,0.0,0.0,89,0.00,,,0.00,172.0,meteohub,2016-07-25 12:31:00,
2016-07-25 08:36:00,76.6,72.9,29.92,SSW,194,0.0,0.0,88,0.00,,,0.00,204.0,meteohub,2016-07-25 12:36:00,
2016-07-25 08:41:00,77.2,72.7,29.92,SW,222,3.0,3.0,86,0.00,,,0.00,492.0,meteohub,2016-07-25 12:41:00,
2016-07-25 08:47:00,77.7,72.5,29.92,SW,227,6.0,6.0,84,0.00,,,0.00,253.0,meteohub,2016-07-25 12:47:00,
2016-07-25 08:52:00,78.4,72.1,29.92,WSW,257,0.0,6.0,81,0.00,,,0.00,550.0,meteohub,2016-07-25 12:52:00,
2016-07-25 08:57:00,79.3,72.0,29.92,South,186,2.0,6.0,78,0.00,,,0.00,290.0,meteohub,2016-07-25 12:57:00,
2016-07-25 09:02:00,80.1,71.8,29.91,South,177,1.0,6.0,76,0.00,,,0.00,272.0,meteohub,2016-07-25 13:02:00,
2016-07-25 09:07:00,80.6,71.1,29.91,South,171,4.0,6.0,73,0.00,,,0.00,302.0,meteohub,2016-07-25 13:07:00,
2016-07-25 09:12:00,81.1,71.2,29.92,SW,219,3.0,9.0,72,0.00,,,0.00,244.0,meteohub,2016-07-25 13:12:00,
2016-07-25 09:17:00,81.3,71.1,29.91,South,176,4.0,9.0,71,0.00,,,0.00,211.0,meteohub,2016-07-25 13:17:00,
2016-07-25 09:23:00,81.5,71.2,29.91,SW,232,2.0,-999.0,71,0.00,,,0.00,185.0,meteohub,2016-07-25 13:23:00,
2016-07-25 09:28:00,81.5,71.2,29.91,SSE,168,2.0,8.0,71,0.00,,,0.00,185.0,meteohub,2016-07-25 13:28:00,
2016-07-25 09:33:00,81.1,70.9,29.91,South,180,3.0,7.0,71,0.00,,,0.00,206.0,meteohub,2016-07-25 13:33:00,
2016-07-25 09:38:00,80.8,70.5,29.91,South,174,0.0,7.0,71,0.00,,,0.00,195.0,meteohub,2016-07-25 13:38:00,
2016-07-25 09:43:00,80.6,70.3,29.91,SW,217,3.0,10.0,71,0.00,,,0.00,216.0,meteohub,2016-07-25 13:43:00,
2016-07-25 09:48:00,80.6,70.7,29.91,South,182,4.0,13.0,72,0.00,,,0.00,257.0,meteohub,2016-07-25 13:48:00,
2016-07-25 09:54:00,80.4,70.5,29.91,South,185,2.0,13.0,72,0.00,,,0.00,309.0,meteohub,2016-07-25 13:54:00,
2016-07-25 09:59:00,80.6,70.7,29.91,SSW,200,2.0,11.0,72,0.00,,,0.00,278.0,meteohub,2016-07-25 13:59:00,
2016-07-25 10:04:00,81.0,70.7,29.90,South,190,4.0,11.0,71,0.00,,,0.00,239.0,meteohub,2016-07-25 14:04:00,
2016-07-25 10:09:00,81.0,70.7,29.91,South,184,5.0,10.0,71,0.00,,,0.00,239.0,meteohub,2016-07-25 14:09:00,
2016-07-25 10:14:00,81.1,70.9,29.91,South,177,6.0,8.0,71,0.00,,,0.00,251.0,meteohub,2016-07-25 14:14:00,
2016-07-25 10:19:00,81.0,70.7,29.91,South,172,5.0,9.0,71,0.00,,,0.00,241.0,meteohub,2016-07-25 14:19:00,
2016-07-25 10:24:00,81.0,71.1,29.91,SW,232,1.0,11.0,72,0.00,,,0.00,766.0,meteohub,2016-07-25 14:24:00,
2016-07-25 10:29:00,81.9,71.6,29.91,South,184,9.0,11.0,71,0.00,,,0.00,759.0,meteohub,2016-07-25 14:29:00,
2016-07-25 10:34:00,82.4,71.6,29.91,South,182,6.0,12.0,70,0.00,,,0.00,777.0,meteohub,2016-07-25 14:34:00,
2016-07-25 10:40:00,82.8,72.0,29.91,South,189,7.0,15.0,70,0.00,,,0.00,775.0,meteohub,2016-07-25 14:40:00,
2016-07-25 10:45:00,82.9,72.1,29.91,SSW,208,6.0,15.0,70,0.00,,,0.00,715.0,meteohub,2016-07-25 14:45:00,
2016-07-25 10:50:00,82.8,72.0,29.91,WSW,238,6.0,15.0,70,0.00,,,0.00,751.0,meteohub,2016-07-25 14:50:00,
2016-07-25 10:55:00,83.1,72.3,29.91,SSE,161,1.0,14.0,70,0.00,,,0.00,779.0,meteohub,2016-07-25 14:55:00,
2016-07-25 11:00:00,83.5,72.7,29.91,West,281,9.0,14.0,70,0.00,,,0.00,798.0,meteohub,2016-07-25 15:00:00,
2016-07-25 11:05:00,83.7,72.9,29.91,SSW,200,5.0,12.0,70,0.00,,,0.00,612.0,meteohub,2016-07-25 15:05:00,
2016-07-25 11:10:00,83.5,73.0,29.91,South,188,3.0,14.0,71,0.00,,,0.00,856.0,meteohub,2016-07-25 15:10:00,
2016-07-25 11:15:00,83.3,73.4,29.91,South,174,4.0,19.0,72,0.00,,,0.00,765.0,meteohub,2016-07-25 15:15:00,
2016-07-25 11:20:00,83.7,74.1,29.90,SSW,195,6.0,19.0,73,0.00,,,0.00,842.0,meteohub,2016-07-25 15:20:00,
2016-07-25 11:26:00,84.0,74.5,29.91,WSW,245,5.0,17.0,73,0.00,,,0.00,784.0,meteohub,2016-07-25 15:26:00,
2016-07-25 11:31:00,84.4,74.8,29.91,SW,229,7.0,14.0,73,0.00,,,0.00,478.0,meteohub,2016-07-25 15:31:00,
2016-07-25 11:36:00,84.2,74.1,29.91,SW,229,10.0,15.0,72,0.00,,,0.00,814.0,meteohub,2016-07-25 15:36:00,
2016-07-25 11:41:00,84.6,75.0,29.90,SW,224,8.0,15.0,73,0.00,,,0.00,793.0,meteohub,2016-07-25 15:41:00,
2016-07-25 11:46:00,84.6,74.5,29.90,SSE,167,1.0,15.0,72,0.00,,,0.00,795.0,meteohub,2016-07-25 15:46:00,
2016-07-25 11:51:00,84.6,74.5,29.89,SSW,200,9.0,18.0,72,0.00,,,0.00,803.0,meteohub,2016-07-25 15:51:00,
2016-07-25 11:57:00,85.3,74.8,29.89,SW,219,6.0,18.0,71,0.00,,,0.00,814.0,meteohub,2016-07-25 15:57:00,
2016-07-25 12:02:00,85.8,74.5,29.89,WSW,255,6.0,13.0,69,0.00,,,0.00,819.0,meteohub,2016-07-25 16:02:00,
2016-07-25 12:07:00,86.5,74.3,29.89,SW,222,4.0,11.0,67,0.00,,,0.00,814.0,meteohub,2016-07-25 16:07:00,
2016-07-25 12:12:00,86.4,73.6,29.88,WNW,288,8.0,11.0,66,0.00,,,0.00,826.0,meteohub,2016-07-25 16:12:00,
2016-07-25 12:17:00,86.9,74.1,29.88,South,178,4.0,12.0,66,0.00,,,0.00,826.0,meteohub,2016-07-25 16:17:00,
2016-07-25 12:22:00,87.1,73.4,29.88,SSW,202,2.0,12.0,64,0.00,,,0.00,831.0,meteohub,2016-07-25 16:22:00,
2016-07-25 12:27:00,87.3,73.0,29.87,WNW,291,5.0,12.0,63,0.00,,,0.00,819.0,meteohub,2016-07-25 16:27:00,
2016-07-25 12:32:00,87.4,74.3,29.87,South,189,3.0,10.0,65,0.00,,,0.00,824.0,meteohub,2016-07-25 16:32:00,
2016-07-25 12:37:00,87.4,73.2,29.87,SSW,207,5.0,10.0,63,0.00,,,0.00,851.0,meteohub,2016-07-25 16:37:00,
2016-07-25 12:42:00,87.1,73.4,29.88,South,186,4.0,13.0,64,0.00,,,0.00,895.0,meteohub,2016-07-25 16:42:00,
2016-07-25 12:47:00,87.1,73.9,29.87,South,178,11.0,13.0,65,0.00,,,0.00,916.0,meteohub,2016-07-25 16:47:00,
2016-07-25 12:52:00,86.5,73.4,29.87,South,173,5.0,15.0,65,0.00,,,0.00,445.0,meteohub,2016-07-25 16:52:00,
2016-07-25 12:57:00,86.2,73.4,29.87,SSE,163,7.0,15.0,66,0.00,,,0.00,385.0,meteohub,2016-07-25 16:57:00,
2016-07-25 13:02:00,86.2,73.9,29.87,SSW,199,3.0,15.0,67,0.00,,,0.00,909.0,meteohub,2016-07-25 17:02:00,
2016-07-25 13:07:00,87.1,74.3,29.87,SSW,198,1.0,10.0,66,0.00,,,0.00,874.0,meteohub,2016-07-25 17:07:00,
2016-07-25 13:12:00,87.8,74.5,29.87,WSW,245,6.0,11.0,65,0.00,,,0.00,884.0,meteohub,2016-07-25 17:12:00,
2016-07-25 13:17:00,88.5,74.8,29.87,SSW,209,4.0,11.0,64,0.00,,,0.00,390.0,meteohub,2016-07-25 17:17:00,
2016-07-25 13:22:00,88.0,74.3,29.87,SSW,211,7.0,11.0,64,0.00,,,0.00,369.0,meteohub,2016-07-25 17:22:00,
2016-07-25 13:27:00,87.3,74.5,29.86,WSW,254,3.0,12.0,66,0.00,,,0.00,867.0,meteohub,2016-07-25 17:27:00,
2016-07-25 13:32:00,87.6,74.8,29.87,West,259,4.0,12.0,66,0.00,,,0.00,833.0,meteohub,2016-07-25 17:32:00,
2016-07-25 13:37:00,88.2,74.5,29.87,South,176,7.0,12.0,64,0.00,,,0.00,831.0,meteohub,2016-07-25 17:37:00,
2016-07-25 13:42:00,87.4,73.8,29.87,SW,219,7.0,12.0,64,0.00,,,0.00,826.0,meteohub,2016-07-25 17:42:00,
2016-07-25 13:47:00,87.3,74.5,29.87,SSW,206,5.0,14.0,66,0.00,,,0.00,824.0,meteohub,2016-07-25 17:47:00,
2016-07-25 13:52:00,88.0,75.2,29.87,SSW,205,3.0,14.0,66,0.00,,,0.00,821.0,meteohub,2016-07-25 17:52:00,
2016-07-25 13:57:00,88.3,75.0,29.87,SW,214,6.0,14.0,65,0.00,,,0.00,817.0,meteohub,2016-07-25 17:57:00,
2016-07-25 14:02:00,88.0,75.2,29.86,SW,231,8.0,10.0,66,0.00,,,0.00,814.0,meteohub,2016-07-25 18:02:00,
2016-07-25 14:07:00,87.4,75.6,29.86,SW,223,5.0,12.0,68,0.00,,,0.00,812.0,meteohub,2016-07-25 18:07:00,
2016-07-25 14:12:00,88.0,75.6,29.86,SW,218,3.0,14.0,67,0.00,,,0.00,805.0,meteohub,2016-07-25 18:12:00,
2016-07-25 14:17:00,87.6,75.4,29.86,WSW,252,5.0,14.0,67,0.00,,,0.00,805.0,meteohub,2016-07-25 18:17:00,
2016-07-25 14:22:00,88.0,75.6,29.86,WSW,252,8.0,14.0,67,0.00,,,0.00,803.0,meteohub,2016-07-25 18:22:00,
2016-07-25 14:27:00,87.6,75.4,29.85,South,176,5.0,14.0,67,0.00,,,0.00,789.0,meteohub,2016-07-25 18:27:00,
2016-07-25 14:32:00,87.6,75.4,29.85,SSW,212,9.0,14.0,67,0.00,,,0.00,773.0,meteohub,2016-07-25 18:32:00,
2016-07-25 14:37:00,87.4,75.2,29.85,South,169,2.0,15.0,67,0.00,,,0.00,701.0,meteohub,2016-07-25 18:37:00,
2016-07-25 14:42:00,87.6,75.4,29.85,West,279,11.0,15.0,67,0.00,,,0.00,745.0,meteohub,2016-07-25 18:42:00,
2016-07-25 14:47:00,88.2,75.4,29.85,SW,223,6.0,15.0,66,0.00,,,0.00,708.0,meteohub,2016-07-25 18:47:00,
2016-07-25 14:52:00,88.5,75.2,29.85,SW,229,0.0,13.0,65,0.00,,,0.00,775.0,meteohub,2016-07-25 18:52:00,
2016-07-25 14:57:00,89.2,75.4,29.85,South,175,11.0,13.0,64,0.00,,,0.00,744.0,meteohub,2016-07-25 18:57:00,
2016-07-25 15:02:00,89.1,74.8,29.85,SSW,202,5.0,12.0,63,0.00,,,0.00,756.0,meteohub,2016-07-25 19:02:00,
2016-07-25 15:07:00,88.7,75.0,29.84,SSW,195,9.0,13.0,64,0.00,,,0.00,759.0,meteohub,2016-07-25 19:07:00,
2016-07-25 15:12:00,88.2,74.8,29.83,SW,215,5.0,13.0,65,0.00,,,0.00,752.0,meteohub,2016-07-25 19:12:00,
2016-07-25 15:17:00,88.0,74.3,29.83,SSE,167,7.0,13.0,64,0.00,,,0.00,733.0,meteohub,2016-07-25 19:17:00,
2016-07-25 15:22:00,88.0,74.3,29.82,South,172,8.0,13.0,64,0.00,,,0.00,728.0,meteohub,2016-07-25 19:22:00,
2016-07-25 15:27:00,87.6,73.9,29.82,SSW,210,3.0,13.0,64,0.00,,,0.00,712.0,meteohub,2016-07-25 19:27:00,
2016-07-25 15:32:00,87.6,73.4,29.83,SSE,155,8.0,12.0,63,0.00,,,0.00,729.0,meteohub,2016-07-25 19:32:00,
2016-07-25 15:37:00,88.0,73.8,29.83,South,177,4.0,11.0,63,0.00,,,0.00,668.0,meteohub,2016-07-25 19:37:00,
2016-07-25 15:42:00,88.0,74.7,29.83,SSE,168,10.0,11.0,65,0.00,,,0.00,696.0,meteohub,2016-07-25 19:42:00,
2016-07-25 15:47:00,87.4,74.7,29.83,SW,231,6.0,11.0,66,0.00,,,0.00,120.0,meteohub,2016-07-25 19:47:00,
2016-07-25 15:52:00,87.1,74.3,29.83,South,184,2.0,11.0,66,0.00,,,0.00,113.0,meteohub,2016-07-25 19:52:00,
2016-07-25 15:57:00,86.4,74.1,29.83,SW,236,5.0,11.0,67,0.00,,,0.00,84.0,meteohub,2016-07-25 19:57:00,
2016-07-25 16:03:00,85.5,73.8,29.84,SW,219,5.0,8.0,68,0.00,,,0.00,53.0,meteohub,2016-07-25 20:03:00,
2016-07-25 16:06:00,84.7,73.9,29.84,SSW,192,4.0,7.0,70,0.00,,,0.00,35.0,meteohub,2016-07-25 20:06:00,
2016-07-25 16:12:00,83.8,73.8,29.84,SW,221,6.0,-999.0,72,0.00,,,0.00,21.0,meteohub,2016-07-25 20:12:00,
2016-07-25 16:17:00,83.5,73.6,29.84,West,275,11.0,-999.0,72,0.00,,,0.00,16.0,meteohub,2016-07-25 20:17:00,
2016-07-25 16:22:00,82.9,73.4,29.83,SSW,207,9.0,-999.0,73,0.00,,,0.00,14.0,meteohub,2016-07-25 20:22:00,
2016-07-25 16:27:00,82.0,72.5,29.82,South,177,0.0,-999.0,73,0.00,,,0.00,16.0,meteohub,2016-07-25 20:27:00,
2016-07-25 16:32:00,81.9,72.7,29.81,South,176,0.0,-999.0,74,0.00,,,0.00,25.0,meteohub,2016-07-25 20:32:00,
2016-07-25 16:37:00,81.9,72.7,29.81,South,176,5.0,-999.0,74,0.00,,,0.00,54.0,meteohub,2016-07-25 20:37:00,
2016-07-25 16:42:00,81.1,72.9,29.81,South,171,5.0,-999.0,76,0.00,,,0.00,104.0,meteohub,2016-07-25 20:42:00,
2016-07-25 16:47:00,80.4,72.9,29.79,South,169,0.0,-999.0,78,0.00,,,0.00,155.0,meteohub,2016-07-25 20:47:00,
2016-07-25 16:52:00,80.4,73.8,29.79,SSE,148,0.0,-999.0,80,0.00,,,0.00,257.0,meteohub,2016-07-25 20:52:00,
2016-07-25 16:58:00,80.4,73.8,29.79,SSE,148,0.0,-999.0,80,-99.99,,,0.00,153.0,meteohub,2016-07-25 20:58:00,
2016-07-25 17:03:00,80.4,73.8,29.80,SSE,165,4.0,-999.0,80,-99.99,,,0.00,113.0,meteohub,2016-07-25 21:03:00,
2016-07-25 17:08:00,80.1,73.4,29.80,South,188,4.0,-999.0,80,-99.99,,,0.00,142.0,meteohub,2016-07-25 21:08:00,
2016-07-25 17:13:00,79.2,72.9,29.80,WNW,285,7.0,-999.0,81,-99.99,,,0.00,146.0,meteohub,2016-07-25 21:13:00,
2016-07-25 17:18:00,78.6,72.7,29.80,SW,215,7.0,-999.0,82,-99.99,,,0.00,190.0,meteohub,2016-07-25 21:18:00,
2016-07-25 17:23:00,78.1,72.1,29.80,South,189,3.0,-999.0,82,-99.99,,,0.00,213.0,meteohub,2016-07-25 21:23:00,
2016-07-25 17:28:00,78.1,72.5,29.79,South,183,2.0,-999.0,83,-99.99,,,0.00,199.0,meteohub,2016-07-25 21:28:00,
2016-07-25 17:33:00,78.4,72.9,29.79,SSW,193,4.0,-999.0,83,-99.99,,,0.00,179.0,meteohub,2016-07-25 21:33:00,
2016-07-25 17:39:00,78.4,72.5,29.80,SSW,198,3.0,-999.0,82,-99.99,,,0.00,130.0,meteohub,2016-07-25 21:39:00,
2016-07-25 17:44:00,78.6,72.3,29.80,SSW,211,0.0,-999.0,81,-99.99,,,0.00,155.0,meteohub,2016-07-25 21:44:00,
2016-07-25 17:49:00,78.6,72.3,29.79,West,261,0.0,-999.0,81,-99.99,,,0.00,134.0,meteohub,2016-07-25 21:49:00,
2016-07-25 17:54:00,78.6,72.0,29.79,WSW,240,0.0,-999.0,80,-99.99,,,0.00,137.0,meteohub,2016-07-25 21:54:00,
2016-07-25 17:59:00,78.8,71.8,29.80,SW,231,4.0,-999.0,79,-99.99,,,0.00,137.0,meteohub,2016-07-25 21:59:00,
2016-07-25 18:04:00,79.0,72.0,29.80,WNW,294,1.0,-999.0,79,-99.99,,,0.00,137.0,meteohub,2016-07-25 22:04:00,
2016-07-25 18:10:00,79.2,71.8,29.79,NW,305,4.0,-999.0,78,-99.99,,,0.00,120.0,meteohub,2016-07-25 22:10:00,
2016-07-25 18:15:00,79.3,72.0,29.79,WNW,286,0.0,-999.0,78,-99.99,,,0.00,107.0,meteohub,2016-07-25 22:15:00,
2016-07-25 18:20:00,79.5,71.6,29.79,WNW,288,1.0,-999.0,77,-99.99,,,0.00,100.0,meteohub,2016-07-25 22:20:00,
2016-07-25 18:25:00,79.9,72.0,29.79,WNW,288,0.0,-999.0,77,-99.99,,,0.00,88.0,meteohub,2016-07-25 22:25:00,
2016-07-25 18:30:00,80.1,71.8,29.79,WNW,287,0.0,-999.0,76,-99.99,,,0.00,74.0,meteohub,2016-07-25 22:30:00,
2016-07-25 18:35:00,80.2,71.6,29.80,SSW,210,2.0,-999.0,75,-99.99,,,0.00,58.0,meteohub,2016-07-25 22:35:00,
2016-07-25 18:40:00,80.2,71.6,29.81,SW,221,4.0,-999.0,75,-99.99,,,0.00,37.0,meteohub,2016-07-25 22:40:00,
2016-07-25 18:46:00,80.1,71.4,29.82,South,191,2.0,-999.0,75,-99.99,,,0.00,21.0,meteohub,2016-07-25 22:46:00,
2016-07-25 18:51:00,79.9,71.2,29.82,SW,234,4.0,-999.0,75,-99.99,,,0.00,12.0,meteohub,2016-07-25 22:51:00,
2016-07-25 18:56:00,79.7,71.1,29.83,West,277,2.0,-999.0,75,-99.99,,,0.00,9.0,meteohub,2016-07-25 22:56:00,
2016-07-25 19:01:00,79.5,71.2,29.83,SW,219,0.0,-999.0,76,-99.99,,,0.00,7.0,meteohub,2016-07-25 23:01:00,
2016-07-25 19:06:00,79.3,71.4,29.83,SW,215,2.0,-999.0,77,-99.99,,,0.00,5.0,meteohub,2016-07-25 23:06:00,
2016-07-25 19:11:00,79.2,71.8,29.84,WSW,237,5.0,-999.0,78,-99.99,,,0.00,0.0,meteohub,2016-07-25 23:11:00,
2016-07-25 19:16:00,79.0,72.3,29.84,SSW,210,7.0,-999.0,80,-99.99,,,0.00,0.0,meteohub,2016-07-25 23:16:00,
2016-07-25 19:22:00,78.6,72.7,29.85,SW,232,3.0,-999.0,82,-99.99,,,0.00,0.0,meteohub,2016-07-25 23:22:00,
2016-07-25 19:27:00,78.4,73.2,29.86,SSW,207,2.0,-999.0,84,-99.99,,,0.00,0.0,meteohub,2016-07-25 23:27:00,
2016-07-25 19:32:00,77.9,73.0,29.86,West,279,1.0,-999.0,85,-99.99,,,0.00,0.0,meteohub,2016-07-25 23:32:00,
2016-07-25 19:37:00,77.4,73.2,29.86,WNW,292,6.0,-999.0,87,-99.99,,,0.00,0.0,meteohub,2016-07-25 23:37:00,
2016-07-25 19:42:00,76.8,73.0,29.86,SW,232,3.0,-999.0,88,-99.99,,,0.00,0.0,meteohub,2016-07-25 23:42:00,
2016-07-25 19:47:00,76.5,73.0,29.86,WNW,284,15.0,-999.0,89,-99.99,,,0.00,0.0,meteohub,2016-07-25 23:47:00,
2016-07-25 19:52:00,76.3,73.0,29.86,WSW,244,6.0,-999.0,90,-99.99,,,0.00,0.0,meteohub,2016-07-25 23:52:00,
2016-07-25 19:57:00,76.3,73.4,29.86,West,270,9.0,-999.0,91,-99.99,,,0.00,0.0,meteohub,2016-07-25 23:57:00,
2016-07-25 20:02:00,76.3,73.4,29.86,SSW,206,2.0,-999.0,91,-99.99,,,0.00,0.0,meteohub,2016-07-26 00:02:00,
2016-07-25 20:07:00,76.1,73.6,29.86,SSW,193,7.0,-999.0,92,-99.99,,,0.00,0.0,meteohub,2016-07-26 00:07:00,
2016-07-25 20:12:00,76.1,73.6,29.85,West,265,5.0,-999.0,92,-99.99,,,0.00,0.0,meteohub,2016-07-26 00:12:00,
2016-07-25 20:17:00,75.9,73.4,29.84,West,263,2.0,-999.0,92,-99.99,,,0.00,0.0,meteohub,2016-07-26 00:17:00,
2016-07-25 20:22:00,75.9,73.4,29.83,West,277,0.0,-999.0,92,-99.99,,,0.00,0.0,meteohub,2016-07-26 00:22:00,
2016-07-25 20:28:00,75.9,73.8,29.81,West,277,0.0,-999.0,93,-99.99,,,0.00,0.0,meteohub,2016-07-26 00:28:00,
2016-07-25 20:33:00,75.7,73.6,29.80,West,277,0.0,-999.0,93,-99.99,,,0.00,0.0,meteohub,2016-07-26 00:33:00,
2016-07-25 20:38:00,75.9,73.8,29.80,West,277,0.0,-999.0,93,-99.99,,,0.00,0.0,meteohub,2016-07-26 00:38:00,
2016-07-25 20:43:00,75.9,73.8,29.80,SSE,156,5.0,-999.0,93,-99.99,,,0.00,0.0,meteohub,2016-07-26 00:43:00,
2016-07-25 20:48:00,75.7,73.6,29.79,SSE,151,2.0,-999.0,93,-99.99,,,0.00,0.0,meteohub,2016-07-26 00:48:00,
2016-07-25 20:53:00,75.7,73.6,29.78,SSE,150,2.0,-999.0,93,-99.99,,,0.00,0.0,meteohub,2016-07-26 00:53:00,
2016-07-25 20:58:00,75.6,73.8,29.77,SSE,152,4.0,-999.0,94,-99.99,,,0.00,0.0,meteohub,2016-07-26 00:58:00,
2016-07-25 21:03:00,75.4,73.6,29.77,SSE,168,2.0,-999.0,94,-99.99,,,0.00,0.0,meteohub,2016-07-26 01:03:00,
2016-07-25 21:09:00,75.4,73.6,29.77,SSE,163,4.0,-999.0,94,-99.99,,,0.00,0.0,meteohub,2016-07-26 01:09:00,
2016-07-25 21:14:00,75.4,73.6,29.77,SSE,157,0.0,-999.0,94,-99.99,,,0.00,0.0,meteohub,2016-07-26 01:14:00,
2016-07-25 21:19:00,75.4,73.6,29.78,SSE,157,0.0,-999.0,94,-99.99,,,0.00,0.0,meteohub,2016-07-26 01:19:00,
2016-07-25 21:24:00,75.4,73.6,29.78,SSE,168,2.0,-999.0,94,-99.99,,,0.00,0.0,meteohub,2016-07-26 01:24:00,
2016-07-25 21:29:00,75.4,73.6,29.78,South,189,2.0,-999.0,94,-99.99,,,0.00,0.0,meteohub,2016-07-26 01:29:00,
2016-07-25 21:35:00,75.2,73.4,29.78,South,180,3.0,-999.0,94,-99.99,,,0.00,0.0,meteohub,2016-07-26 01:35:00,
2016-07-25 21:40:00,75.0,73.4,29.79,SSW,204,0.0,-999.0,95,0.01,,,0.23,0.0,meteohub,2016-07-26 01:40:00,
2016-07-25 21:45:00,75.0,73.4,29.79,SSW,207,4.0,-999.0,95,0.01,,,0.23,0.0,meteohub,2016-07-26 01:45:00,
2016-07-25 21:50:00,75.0,73.4,29.80,SSW,207,5.0,-999.0,95,0.01,,,0.23,0.0,meteohub,2016-07-26 01:50:00,
2016-07-25 21:55:00,74.8,73.2,29.80,SSW,198,0.0,-999.0,95,0.01,,,0.23,0.0,meteohub,2016-07-26 01:55:00,
2016-07-25 22:00:00,74.8,73.2,29.79,WNW,301,5.0,-999.0,95,-99.99,,,0.23,0.0,meteohub,2016-07-26 02:00:00,
2016-07-25 22:05:00,74.8,73.2,29.80,SW,219,1.0,-999.0,95,-99.99,,,0.23,0.0,meteohub,2016-07-26 02:05:00,
2016-07-25 22:10:00,74.7,73.2,29.80,WNW,283,5.0,-999.0,95,-99.99,,,0.23,0.0,meteohub,2016-07-26 02:10:00,
2016-07-25 22:16:00,74.5,73.0,29.80,WNW,296,8.0,-999.0,95,-99.99,,,0.23,0.0,meteohub,2016-07-26 02:16:00,
2016-07-25 22:21:00,74.3,72.9,29.81,WSW,256,6.0,-999.0,95,-99.99,,,0.23,0.0,meteohub,2016-07-26 02:21:00,
2016-07-25 22:26:00,73.9,72.5,29.81,WSW,246,5.0,-999.0,95,-99.99,,,0.23,0.0,meteohub,2016-07-26 02:26:00,
2016-07-25 22:31:00,73.8,72.3,29.81,WSW,256,4.0,-999.0,95,-99.99,,,0.23,0.0,meteohub,2016-07-26 02:31:00,
2016-07-25 22:36:00,73.6,72.1,29.82,WNW,292,5.0,-999.0,95,-99.99,,,0.23,0.0,meteohub,2016-07-26 02:36:00,
2016-07-25 22:41:00,73.6,72.1,29.82,WNW,286,6.0,-999.0,95,-99.99,,,0.23,0.0,meteohub,2016-07-26 02:41:00,
2016-07-25 22:47:00,73.2,71.8,29.82,NW,308,4.0,-999.0,95,-99.99,,,0.23,0.0,meteohub,2016-07-26 02:47:00,
2016-07-25 22:52:00,73.0,71.6,29.82,NW,306,2.0,-999.0,95,-99.99,,,0.23,0.0,meteohub,2016-07-26 02:52:00,
2016-07-25 22:57:00,73.0,71.6,29.82,West,268,1.0,-999.0,95,-99.99,,,0.23,0.0,meteohub,2016-07-26 02:57:00,
2016-07-25 23:02:00,72.9,71.4,29.82,West,277,4.0,-999.0,95,-99.99,,,0.23,0.0,meteohub,2016-07-26 03:02:00,
2016-07-25 23:07:00,72.9,71.4,29.82,West,278,4.0,-999.0,95,-99.99,,,0.23,0.0,meteohub,2016-07-26 03:07:00,
2016-07-25 23:12:00,72.7,71.2,29.82,WNW,288,0.0,-999.0,95,-99.99,,,0.23,0.0,meteohub,2016-07-26 03:12:00,